Showing default

DIADEME 2, 2680

Orbit data source: Space-Track

DIADEME 2, 2680 is a payload satellite owned by CNES (FR) in LEO that was launched on Wed, 15 Feb 1967 UTC via a DIAMANT A launch vehicle from the Hamma Guira Space Track Range (HGSTR). Payload-class satellites include a variety of spacecraft equipped with specific instruments for various scientific and technological missions. These include communications satellites like Starlink; space stations such as the ISS; scientific satellites like the Hubble; Earth observation satellites from companies like Planet Labs, Umbra, and HawkEye 360; GPS; miniature CubeSats for education and research; and military/defense satellites.

Loading next visibility...
Identifier
2680, 1967-014A
Orbit
LEO
Country
Flag of FRFR
Related business
Manufacturer
CNES
Mission
Spacecraft
Bus & Motor
D-1, Unknown motor
Mass
23 kg wet, 23 kg dry
Launch date (UTC)
1967-02-15 (59 years ago)
Launch vehicle
DIAMANT A
Launch site
Hamma Guira Space Track Range (HGSTR)
Object type
Payload
Rocket body
Debris
Shape & HBR
Unknown
Radar Cross Section
Medium (>0.1 m² and <1 m²)

Expand to show TLE details & history
Last TLE update: 13 hours ago

TLE from 13 hours ago
0 DIADEME 2
1 02680U 67014A   25348.32143546  .00001267  00000-0  54795-3 0  9993
2 02680  39.4348 201.2465 0699768  68.0997 299.2618 13.41485667851133
Epoch: 2025-12-14T07:42Z
TLE epoch observation values (Epoch: 2025-12-14T07:42:52.023Z)
Latitude
-0.00003°
Longitude
2.29367°
Altitude
876.587 km
Speed
7.527 km/s
True Right ascension
13h 24m 59s
True Declination
0° 00' 00"
Sunlit
Object was in daylight at epoch
Visualization orbit readout
Latitude
Unknown
Longitude
Unknown
Altitude
Unknown
Speed
Unknown
Apparent Right ascension
Unknown
Apparent Declination
Unknown
Sunlit
N/A
Visualization observer readout
Local Sidereal Time
19:37:30
Azimuth
Unknown
Elevation
Unknown
Doppler factor
Unknown
Orbital elements
Apogee altitude
1,629.819 km
Perigee altitude
582.374 km
Semi-major axis
7,484.233 km
Eccentricity
0.06998
Inclination
39.4348°
RAAN
201.2465°
Arg. of periapsis
68.0997°
True anomaly
291.97421°
Mean anomaly
299.2618°
Eccentric anomaly
295.64745°
Mean motion
3.35214 °/min
Orbital period
107.39 mins
BSTAR
0.00054795
Loading maneuver chart data...
Computing Atmospheric mass density...
Loading historical data...
Loading historical data...
Loading historical data...
Loading historical data...
Loading historical data...
Loading historical data...
Loading historical data...

Documentation

Showing up to 5 results
|